Location: ????????
(55.0721°N, 37.9895°E)
Time: 05:14:07
(UTC+00:00)

Daily predictions for brighter satellites

Satellite Brightness Start Highest point End
(mag) Time Altitude Azimuth Time Altitude Azimuth Time Altitude Azimuth
ATLAS 3B R/B 3.7 00:55:12 46° NNE 00:55:12 46° NNE 01:01:13 10° NE
SL-16 R/B 4.1 01:05:03 23° NNE 01:05:03 23° NNE 01:09:21 10° E
Cosmos 1833 Rocket 4.0 01:11:36 36° E 01:11:36 36° E 01:15:51 10° NE
ACS3 Solar Sail 3.6 01:05:40 10° NNE 01:07:31 21° N 01:07:31 21° N
CZ-2C R/B 4.4 01:10:04 10° NNE 01:12:33 26° NE 01:12:33 26° NE
NOSS 3-1 (A) 4.3 01:27:45 46° NNE 01:27:52 46° NNE 01:35:14 10° E
ADEOS Rocket 3.8 01:23:56 10° NNE 01:29:51 56° N 01:29:51 56° N
USA 59 Rocket 2.6 01:35:37 15° ESE 01:35:37 15° ESE 01:36:29 10° ESE
Cosmos 1980 Rocket 3.0 01:35:03 45° ESE 01:35:03 45° ESE 01:38:57 10° SE
SL-16 R/B 4.2 01:43:02 18° N 01:43:02 18° N 01:45:18 10° NNE
Cosmos 2333 Rocket 3.7 01:44:45 26° N 01:46:10 29° NNE 01:51:11 10° E
USA 229 4.3 01:48:04 44° N 01:48:10 44° N 01:55:13 10° ENE
USA 229 DEB 4.3 01:48:10 44° N 01:48:15 44° N 01:55:18 10° ENE
USA 234 3.1 01:42:48 10° E 01:49:22 77° N 01:49:33 76° NNW
Cosmos 2098 Rocket 4.0 01:49:34 58° NE 01:50:10 62° ENE 01:55:56 10° SSE
SL-4 R/B 4.4 02:04:25 15° ESE 02:04:25 15° ESE 02:05:13 10° E
H-2A R/B 4.4 01:57:50 10° N 01:58:00 11° N 01:58:00 11° N
COSMOS 2455 2.9 02:02:19 68° N 02:02:56 74° NE 02:08:58 10° SE
Cosmos 2360 Rocket 3.8 02:03:11 22° N 02:05:12 28° NNE 02:09:59 10° E
Cosmos 2237 Rocket 4.2 02:08:42 16° N 02:09:02 16° N 02:12:24 10° NE
Cosmos 540 Rocket 4.2 02:06:49 24° S 02:09:37 50° ESE 02:14:34 10° NE
ARGOS 4.0 02:09:39 10° NNE 02:13:05 39° N 02:13:05 39° N
NOSS 3-1 (C) 3.8 02:13:14 52° NW 02:15:07 80° NE 02:23:27 10° SE
SeaSat 1 3.6 02:12:16 10° NNE 02:15:11 32° N 02:15:11 32° N
Celestis-02/Orion 38 4.4 02:13:00 10° NE 02:18:06 84° ESE 02:18:29 76° S
Cosmos 1606 Rocket 4.3 02:19:21 36° NNE 02:20:46 51° ENE 02:25:06 10° SSE
Meteor 2-12 Rocket 4.4 02:16:30 10° S 02:22:37 85° ESE 02:28:45 10° NNE
IRS-1D 4.2 02:19:41 10° NNE 02:24:33 52° E 02:29:27 10° S
Cosmos 2322 Rocket 3.5 02:22:27 23° N 02:25:13 35° NE 02:30:25 10° ESE
Cosmos 2219 Rocket 3.9 02:23:27 19° N 02:26:08 26° NNE 02:30:51 10° E
RESURS DK-1 2.9 02:26:59 55° ENE 02:26:59 55° ENE 02:30:19 10° NE
Cosmos 909 Rocket 4.2 02:24:24 40° SW 02:27:31 85° NW 02:34:09 10° NE
Cosmos 2237 4.3 02:25:47 44° NNW 02:27:39 72° NE 02:33:21 10° SE
ATLAS 5 CENTAUR R/B 2.6 02:29:04 30° ENE 02:29:04 30° ENE 02:31:05 10° ENE
COSMO-SKYMED 1 2.6 02:27:28 10° SSE 02:31:34 71° ENE 02:31:43 70° NE
Cosmos 1898 Rocket 3.5 02:32:28 50° NNW 02:33:52 83° ENE 02:39:07 10° SSE
ADEOS II 4.3 02:30:33 10° N 02:30:53 11° N 02:30:53 11° N
Cosmos 1346 Rocket 4.4 02:33:27 10° SSE 02:36:47 32° E 02:40:08 10° NNE
SJ-11-01 4.2 02:33:04 10° NNE 02:37:48 85° ESE 02:42:30 10° SSW
NOSS 3-4 (A) 3.1 02:37:38 56° WSW 02:38:53 80° NW 02:45:06 10° NE
NOSS 3-4 (C) 3.1 02:37:46 55° WSW 02:39:03 81° NW 02:45:16 10° NE
Aureole 1 Rocket 4.1 02:42:15 33° NW 02:45:30 71° WSW 02:52:52 10° SSE
ATLAS 3B R/B 3.6 02:42:27 31° NW 02:45:44 46° N 02:53:12 10° ENE
FengYun 1-2 T 4.1 02:41:24 10° NNE 02:47:05 83° WNW 02:52:45 10° SSW
Cosmos 1726 Rocket 3.8 02:46:35 22° N 02:49:27 69° ENE 02:53:46 10° SSE
SL-16 R/B 2.5 02:46:54 27° NNW 02:50:03 64° NE 02:55:40 10° SE
Cosmos 468 Rocket 4.3 02:46:20 10° SSW 02:51:32 68° ESE 02:56:44 10° NNE
DNEPR-1 R/B 3.3 02:52:16 65° WSW 02:52:52 83° NW 02:57:07 10° NE
CZ-2C R/B 3.2 02:48:11 10° N 02:51:46 35° NNW 02:51:46 35° NNW
ACS3 Solar Sail 3.4 02:49:24 10° N 02:51:33 17° NNW 02:51:33 17° NNW
Cosmos 1833 Rocket 2.8 02:53:18 46° W 02:54:27 54° NW 03:00:01 10° NNE
Cosmos 2082 Rocket 2.9 02:50:44 10° S 02:56:11 54° ESE 03:01:39 10° NE
Cosmos 1484 Rocket 4.3 02:53:43 10° NNE 02:56:53 33° E 03:00:01 10° SSE
BREEZE-M DEB (TANK) 3.9 02:56:24 20° S 02:57:10 22° SSE 03:00:54 10° ESE
CZ-4 R/B 3.8 02:52:29 10° NNE 02:57:12 82° ESE 03:01:50 10° SSW
SWAS 4.2 02:58:34 65° NW 02:59:08 84° SW 03:03:11 10° SSE
Cosmos 1933 3.2 02:59:40 60° SW 02:59:40 60° SW 03:03:00 10° S
Cosmos 2279 Rocket 4.3 02:58:02 34° NW 02:59:49 42° W 03:05:37 10° SSW
Tsikada Rocket 4.4 03:00:16 37° W 03:01:15 39° WNW 03:07:14 10° N
Cosmos 1937 Rocket 3.3 03:01:14 32° NNW 03:03:41 81° WSW 03:08:48 10° SSE
Cosmos 1763 Rocket 3.5 03:05:08 26° SW 03:08:04 60° WNW 03:13:15 10° NNE
Cosmos 1892 Rocket 4.5 03:04:32 10° S 03:08:44 49° E 03:13:00 10° NNE
Cosmos 2278 3.8 03:07:54 22° NNW 03:11:42 76° NE 03:17:21 10° SE
Cosmos 2369 3.9 03:12:26 33° WNW 03:14:30 48° WSW 03:19:54 10° S
BREEZE-M DEB (TANK) 4.0 03:15:52 16° SSE 03:15:52 16° SSE 03:16:41 10° SE
NOSS 2-1 (D) 3.8 03:15:43 37° SW 03:15:46 37° SW 03:19:42 10° SSE
ADEOS Rocket 4.5 03:10:03 10° N 03:15:50 25° NW 03:16:46 24° NW
Cosmos 1980 Rocket 3.0 03:16:50 29° WSW 03:16:58 29° WSW 03:21:41 10° SSW
NOSS 2-1 (E) 3.5 03:17:54 42° WSW 03:18:12 43° SW 03:22:12 10° SSE
NOSS 3-1 (A) 3.9 03:15:08 25° NW 03:19:25 87° NE 03:27:52 10° SE
Cosmos 372 Rocket 4.3 03:18:32 34° WNW 03:19:50 41° WSW 03:24:33 10° S
Cosmos 1536 Rocket 3.6 03:16:03 10° SSW 03:20:23 53° WNW 03:24:45 10° N
USA 59 Rocket 0.5 03:21:19 32° SW 03:21:31 32° SW 03:25:22 10° SSE
DMSP B5D1-3 4.4 03:20:54 10° S 03:26:00 71° WSW 03:31:09 10° NNW
SL-16 R/B 4.1 03:24:53 13° NNW 03:27:16 16° N 03:30:45 10° NE
Cosmos 2098 Rocket 4.4 03:26:40 28° WNW 03:27:35 29° W 03:32:30 10° SW
IGS 5A 3.8 03:26:48 10° NNE 03:30:48 65° ESE 03:34:46 10° S
Cosmos 2333 Rocket 2.2 03:26:46 18° NNW 03:31:15 88° ENE 03:37:01 10° SSE
Meteor 2-20 Rocket 4.3 03:25:22 10° N 03:31:16 84° ENE 03:37:00 10° SSE
Cosmos 2058 Rocket 3.1 03:26:50 10° NNW 03:31:20 88° ENE 03:35:46 10° S
Cosmos 2221 4.2 03:28:13 10° N 03:31:57 30° ENE 03:35:38 10° SE
USA 234 3.3 03:25:45 10° ESE 03:32:21 89° NNE 03:36:53 22° WNW
Cosmos 2058 4.3 03:37:37 20° NNW 03:37:37 20° NNW 03:39:26 10° N
Helios 1A Rocket 4.1 03:36:43 10° SSW 03:38:15 19° SW 03:38:15 19° SW
SL-4 R/B 2.1 03:38:08 26° WSW 03:39:35 45° S 03:42:39 10° ESE
Cosmos 2026 Rocket 3.9 03:33:42 10° S 03:39:46 88° E 03:45:54 10° NNE
NOSS 2-1 (C) 4.3 03:39:23 25° WSW 03:40:07 27° SW 03:43:43 10° S
USA 229 4.3 03:35:30 20° NW 03:40:26 52° NNE 03:48:00 10° E
USA 229 DEB 4.3 03:35:36 20° NW 03:40:31 52° NNE 03:48:05 10° E
Timation 1 Rocket 4.3 03:37:15 10° SW 03:43:11 67° NW 03:49:09 10° NNE
Meteor 1-26 Rocket 4.1 03:42:25 10° NNW 03:47:51 72° W 03:53:24 10° S
COSMOS 2455 3.6 03:45:29 21° WNW 03:48:27 32° WSW 03:53:41 10° S
Cosmos 2360 Rocket 2.2 03:44:56 13° NNW 03:49:59 85° ENE 03:55:37 10° SE
Cosmos 540 Rocket 4.0 03:46:39 11° WSW 03:51:17 37° NW 03:56:04 10° NNE
Cosmos 1553 Rocket 4.1 03:45:54 10° N 03:52:17 87° E 03:58:42 10° S
SeaSat 1 3.9 03:50:12 10° NNE 03:53:29 18° NNW 03:54:48 16° NW
Cosmos 1707 4.4 03:52:14 10° N 03:54:55 25° ENE 03:57:35 10° SE
Cosmos 2237 Rocket 3.9 03:50:43 10° NNW 03:55:11 23° NNE 03:59:39 10° E
Meteor 2-3 Rocket 3.7 03:50:35 10° SSW 03:56:19 70° WNW 04:02:02 10° N
Cosmos 1092 Rocket 4.0 03:52:47 10° SSW 03:59:05 79° WNW 04:05:23 10° N
Cosmos-2242 3.1 03:57:52 10° NNW 04:02:01 53° W 04:06:08 10° S
IRS-1D 4.1 03:59:09 10° N 04:03:32 32° WNW 04:07:56 10° WSW
RESURS DK-1 3.4 04:02:19 19° WNW 04:04:06 26° NW 04:07:31 10° NNE
Cosmos 841 Rocket 3.5 04:01:31 10° SW 04:06:44 68° WNW 04:12:00 10° NNE
COSMO-SKYMED 1 3.9 04:04:38 10° SW 04:07:22 17° W 04:08:03 16° WNW
Nadezhda 4 Rocket 4.4 04:01:55 10° SW 04:07:51 42° WNW 04:13:47 10° N
Cosmos 2322 Rocket 2.2 04:04:14 11° NW 04:09:42 69° WSW 04:15:21 10° SSE
ATLAS 5 CENTAUR R/B 1.7 04:08:34 19° WNW 04:10:21 32° NNW 04:13:41 10° NE
Cosmos 489 Rocket 4.4 04:04:12 10° SW 04:10:29 69° WNW 04:16:46 10° NNE
Cosmos 2219 Rocket 2.3 04:05:15 10° NNW 04:10:58 78° NE 04:16:38 10° SE
Cosmos 1346 Rocket 3.5 04:08:48 10° SW 04:12:03 28° WNW 04:15:19 10° N
SL-08 R/B 3.5 04:08:56 10° SSE 04:13:30 72° ENE 04:18:10 10° NNW
Cosmos 1125 Rocket 4.0 04:08:21 10° NNW 04:13:37 61° ENE 04:18:48 10° SE
Okean 1 3.5 04:14:02 10° NNW 04:17:22 38° W 04:20:42 10° SSW
Cosmos 1437 Rocket 3.2 04:14:48 10° N 04:18:12 51° ENE 04:21:34 10° SSE
KORONAS-FOTON 4.5 04:15:14 10° N 04:18:32 47° ENE 04:21:48 10° SSE
Cosmos 2333 4.2 04:13:01 10° NW 04:18:48 78° WSW 04:24:31 10° SSE
COSMOS 2406 3.2 04:14:12 10° SW 04:19:52 79° NW 04:25:36 10° NNE
Cosmos 1758 Rocket 3.9 04:15:37 10° S 04:20:02 71° E 04:24:27 10° NNE
SJ-12 3.7 04:20:39 10° NNE 04:24:29 87° ESE 04:28:18 10° SSW
NOSS 8 (A) 4.2 04:22:46 15° WNW 04:25:01 56° SW 04:28:02 10° SE
Cosmos 1743 3.1 04:22:26 10° S 04:25:36 54° E 04:28:49 10° NNE
IRS-1C 4.3 04:21:52 10° NNE 04:27:14 79° ESE 04:32:34 10° SSW
COSMOS 2428 3.5 04:21:45 10° NNW 04:27:17 48° NE 04:32:49 10° ESE
Cosmos 1417 Rocket 4.5 04:23:29 10° NNW 04:29:38 88° W 04:35:47 10° S
Cosmos 1484 Rocket 3.4 04:26:47 10° N 04:29:43 26° WNW 04:32:36 10° WSW
CZ-2C R/B 4.3 04:28:21 10° NNW 04:29:47 11° NW 04:30:59 10° NW
NOSS 3-4 (A) 3.9 04:25:05 10° W 04:30:28 42° N 04:36:42 10° ENE
NOSS 3-4 (C) 3.9 04:25:13 10° W 04:30:38 42° N 04:36:52 10° ENE
SAR-Lupe-4 3.5 04:28:05 10° NNE 04:31:40 76° WNW 04:35:12 10° SSW
SMAP 3.0 04:27:01 10° N 04:31:41 66° WNW 04:36:18 10° SSW
SPOT 1/Viking Rocket 4.5 04:27:26 10° NNE 04:32:33 54° E 04:37:37 10° S
Cosmos 1238 Rocket 3.3 04:30:39 10° N 04:33:33 41° ENE 04:36:18 10° SSE
SL-16 R/B 3.1 04:28:52 10° NW 04:33:49 31° WSW 04:38:43 10° SSW
Cosmos 2266 Rocket 4.5 04:29:53 10° S 04:36:14 71° E 04:42:33 10° NNE
SAR-Lupe-1 4.0 04:33:04 10° NNE 04:36:43 78° WNW 04:40:19 10° SSW
Cosmos 192 4.4 04:32:17 10° NNW 04:37:15 86° WSW 04:42:10 10° SSE
ATLAS 3B R/B 3.3 04:29:48 10° NW 04:37:43 68° NNE 04:45:22 10° ESE
ARIANE 5 R/B 2.6 04:33:21 10° NNE 04:38:34 83° WNW 04:43:47 10° SSW
Landsat 7 3.7 04:34:02 10° N 04:38:41 69° WNW 04:43:19 10° SSW
BREEZE-M DEB (TANK) 4.3 04:37:06 10° WSW 04:39:18 25° S 04:41:20 10° ESE
IRIDIUM 104 4.4 04:34:28 10° SSW 04:39:35 55° W 04:44:45 10° N
Cosmos 1833 Rocket 4.0 04:35:21 10° WNW 04:39:37 21° NNW 04:43:55 10° NNE
Cosmos 220 Rocket 4.3 04:35:52 10° WSW 04:39:42 39° NW 04:43:36 10° NNE
Cosmos 2082 Rocket 2.6 04:35:08 10° WSW 04:40:27 41° NW 04:45:47 10° NNE
Cosmos 1733 1.6 04:38:35 10° SSW 04:40:36 56° WNW 04:42:40 10° N
Orbus 7S? 4.0 04:39:32 10° W 04:41:49 25° SW 04:44:15 10° SSE
YAOGAN 1 3.7 04:38:43 10° NNE 04:42:53 48° E 04:47:00 10° S
MOS 1 Rocket 3.6 04:40:17 10° NNE 04:45:39 78° WNW 04:51:00 10° SSW
Cosmos 1626 Rocket 3.6 04:41:18 10° SSW 04:45:40 61° WNW 04:50:05 10° N
COBE Rocket 3.9 04:44:05 10° SSE 04:48:42 78° ENE 04:53:20 10° NNW
Okean 1-7 Rocket 4.2 04:45:13 10° S 04:49:41 65° E 04:54:09 10° NNE
Cosmos 2285 Rocket 4.4 04:44:00 10° NW 04:50:05 48° WSW 04:56:10 10° S
CZ-2D R/B 3.4 04:51:41 10° N 04:54:37 34° WNW 04:57:31 10° SW
YAOGAN 11 4.4 04:50:24 10° S 04:54:40 51° W 04:58:55 10° NNW
Meteor 1-10 Rocket 4.4 04:49:14 10° NNW 04:55:05 73° W 05:00:58 10° S
AQUARIUS 4.1 04:51:35 10° N 04:55:58 62° WNW 05:00:19 10° SSW
